Time,TemperatureF,DewpointF,PressureIn,WindDirection,WindDirectionDegrees,WindSpeedMPH,WindSpeedGustMPH,Humidity,HourlyPrecipIn,Conditions,Clouds,dailyrainin,SoftwareType,DateUTC
2013-03-29 00:00:00,49.6,32.3,30.36,NNW,339,0.0,0.0,51,0.00,,---,0.00,VWS V14.01,2013-03-29 04:00:00,
2013-03-29 00:01:00,49.8,31.4,30.36,NNW,339,0.0,0.0,49,0.00,,---,0.00,VWS V14.01,2013-03-29 04:01:00,
2013-03-29 00:06:00,50.2,32.3,30.36,NNW,339,0.0,0.0,50,0.00,,---,0.00,VWS V14.01,2013-03-29 04:06:00,
2013-03-29 00:11:00,50.0,32.1,30.36,NNW,339,0.0,0.0,50,0.00,,---,0.00,VWS V14.01,2013-03-29 04:11:00,
2013-03-29 00:16:00,49.5,30.6,30.36,NNW,339,0.0,0.0,48,0.00,,---,0.00,VWS V14.01,2013-03-29 04:16:00,
2013-03-29 00:21:00,49.1,30.8,30.36,NNW,339,0.0,0.0,49,0.00,,---,0.00,VWS V14.01,2013-03-29 04:21:00,
2013-03-29 00:26:00,49.1,30.8,30.36,NNW,339,0.0,0.0,49,0.00,,---,0.00,VWS V14.01,2013-03-29 04:26:00,
2013-03-29 00:31:00,49.6,31.8,30.36,NNW,339,0.0,0.0,50,0.00,,---,0.00,VWS V14.01,2013-03-29 04:31:00,
2013-03-29 00:37:00,50.0,32.1,30.36,NNW,339,0.0,0.0,50,0.00,,---,0.00,VWS V14.01,2013-03-29 04:37:00,
2013-03-29 00:42:00,50.0,32.1,30.36,NNW,339,0.0,0.0,50,0.00,,---,0.00,VWS V14.01,2013-03-29 04:42:00,
2013-03-29 00:47:00,50.0,31.6,30.36,NNW,339,0.0,0.0,49,0.00,,---,0.00,VWS V14.01,2013-03-29 04:47:00,
2013-03-29 00:52:00,50.0,31.6,30.33,NNW,339,0.0,0.0,49,0.00,,---,0.00,VWS V14.01,2013-03-29 04:52:00,
2013-03-29 00:57:00,50.0,32.1,30.33,NNW,339,0.0,0.0,50,0.00,,---,0.00,VWS V14.01,2013-03-29 04:57:00,
2013-03-29 01:02:00,49.6,31.8,30.33,NNW,339,0.0,0.0,50,0.00,,---,0.00,VWS V14.01,2013-03-29 05:02:00,
2013-03-29 01:07:00,49.3,32.4,30.33,NNW,339,0.0,0.0,52,0.00,,---,0.00,VWS V14.01,2013-03-29 05:07:00,
2013-03-29 01:12:00,49.3,32.4,30.33,NNW,340,0.0,0.0,52,0.00,,---,0.00,VWS V14.01,2013-03-29 05:12:00,
2013-03-29 01:17:00,49.3,32.9,30.33,NNW,339,0.0,0.0,53,0.00,,---,0.00,VWS V14.01,2013-03-29 05:17:00,
2013-03-29 01:23:00,48.9,33.5,30.33,NNW,339,0.0,0.0,55,0.00,,---,0.00,VWS V14.01,2013-03-29 05:23:00,
2013-03-29 01:28:00,49.1,34.1,30.33,NNW,340,0.0,0.0,56,0.00,,---,0.00,VWS V14.01,2013-03-29 05:28:00,
2013-03-29 01:33:00,48.9,34.4,30.33,NNW,339,0.0,0.0,57,0.00,,---,0.00,VWS V14.01,2013-03-29 05:33:00,
2013-03-29 01:38:00,48.9,34.8,30.33,NNW,339,0.0,0.0,58,0.00,,---,0.00,VWS V14.01,2013-03-29 05:38:00,
2013-03-29 01:43:00,48.7,35.1,30.33,NNW,339,0.0,0.0,59,0.00,,---,0.00,VWS V14.01,2013-03-29 05:43:00,
2013-03-29 01:48:00,48.6,35.3,30.33,NNW,339,0.0,0.0,60,0.00,,---,0.00,VWS V14.01,2013-03-29 05:48:00,
2013-03-29 01:54:00,48.4,35.2,30.33,NNW,339,0.0,0.0,60,0.00,,---,0.00,VWS V14.01,2013-03-29 05:54:00,
2013-03-29 01:59:00,48.4,36.0,30.33,NNW,339,0.0,0.0,62,0.00,,---,0.00,VWS V14.01,2013-03-29 05:59:00,
2013-03-29 02:04:00,48.2,36.2,30.33,NNW,339,0.0,0.0,63,0.00,,---,0.00,VWS V14.01,2013-03-29 06:04:00,
2013-03-29 02:09:00,47.8,36.7,30.33,NNW,339,0.0,0.0,65,0.00,,---,0.00,VWS V14.01,2013-03-29 06:09:00,
2013-03-29 02:15:00,47.8,37.4,30.33,NNW,339,0.0,0.0,67,0.00,,---,0.00,VWS V14.01,2013-03-29 06:15:00,
2013-03-29 02:20:00,47.8,37.4,30.33,NNW,340,0.0,0.0,67,0.00,,---,0.00,VWS V14.01,2013-03-29 06:20:00,
2013-03-29 02:25:00,47.8,38.2,30.33,NNW,339,0.0,0.0,69,0.00,,---,0.00,VWS V14.01,2013-03-29 06:25:00,
2013-03-29 02:30:00,47.7,38.4,30.33,NNW,340,0.0,0.0,70,0.00,,---,0.00,VWS V14.01,2013-03-29 06:30:00,
2013-03-29 02:35:00,47.5,38.6,30.33,NNW,340,0.0,0.0,71,0.00,,---,0.00,VWS V14.01,2013-03-29 06:35:00,
2013-03-29 02:40:00,47.5,38.6,30.33,NNW,339,0.0,0.0,71,0.00,,---,0.00,VWS V14.01,2013-03-29 06:40:00,
2013-03-29 02:45:00,47.8,39.6,30.33,NNW,340,0.0,0.0,73,0.00,,---,0.00,VWS V14.01,2013-03-29 06:45:00,
2013-03-29 02:50:00,48.0,40.1,30.33,NNW,339,0.0,0.0,74,0.00,,---,0.00,VWS V14.01,2013-03-29 06:50:00,
2013-03-29 02:56:00,48.2,41.0,30.33,NNW,339,0.0,0.0,76,0.00,,---,0.00,VWS V14.01,2013-03-29 06:56:00,
2013-03-29 03:01:00,48.2,41.3,30.33,NNW,338,0.0,0.0,77,0.00,,---,0.00,VWS V14.01,2013-03-29 07:01:00,
2013-03-29 03:06:00,48.2,41.3,30.33,NNW,340,0.0,0.0,77,0.00,,---,0.00,VWS V14.01,2013-03-29 07:06:00,
2013-03-29 03:12:00,48.7,42.2,30.33,NNW,338,0.0,0.0,78,0.00,,---,0.00,VWS V14.01,2013-03-29 07:12:00,
2013-03-29 03:17:00,48.7,42.2,30.33,NNW,340,0.0,0.0,78,0.00,,---,0.00,VWS V14.01,2013-03-29 07:17:00,
2013-03-29 03:22:00,48.7,42.2,30.33,NNW,331,0.0,0.0,78,0.00,,---,0.00,VWS V14.01,2013-03-29 07:22:00,
2013-03-29 03:27:00,48.7,41.9,30.33,NNW,338,0.0,0.0,77,0.00,,---,0.00,VWS V14.01,2013-03-29 07:27:00,
2013-03-29 03:32:00,48.7,42.2,30.33,NNW,338,0.0,0.0,78,0.00,,---,0.00,VWS V14.01,2013-03-29 07:32:00,
2013-03-29 03:38:00,49.1,42.5,30.33,NNW,345,0.0,0.0,78,0.00,,---,0.00,VWS V14.01,2013-03-29 07:38:00,
2013-03-29 03:43:00,49.5,42.6,30.33,NNW,337,0.0,0.0,77,0.00,,---,0.00,VWS V14.01,2013-03-29 07:43:00,
2013-03-29 03:48:00,49.6,42.7,30.33,North,353,0.0,0.0,77,0.00,,---,0.00,VWS V14.01,2013-03-29 07:48:00,
2013-03-29 03:53:00,50.0,42.7,30.33,NNW,334,0.0,0.0,76,0.00,,---,0.00,VWS V14.01,2013-03-29 07:53:00,
2013-03-29 03:58:00,49.8,42.2,30.30,NNW,334,0.0,0.0,75,0.00,,---,0.00,VWS V14.01,2013-03-29 07:58:00,
2013-03-29 04:03:00,49.8,41.9,30.30,NNW,334,0.0,0.0,74,0.00,,---,0.00,VWS V14.01,2013-03-29 08:03:00,
2013-03-29 04:08:00,49.5,40.8,30.30,NNW,334,0.0,0.0,72,0.00,,---,0.00,VWS V14.01,2013-03-29 08:08:00,
2013-03-29 04:14:00,49.3,40.3,30.30,NNW,335,0.0,0.0,71,0.00,,---,0.00,VWS V14.01,2013-03-29 08:14:00,
2013-03-29 04:19:00,49.6,41.0,30.30,NNW,337,0.0,0.0,72,0.00,,---,0.00,VWS V14.01,2013-03-29 08:19:00,
2013-03-29 04:24:00,49.6,41.0,30.30,NNW,332,0.0,0.0,72,0.00,,---,0.00,VWS V14.01,2013-03-29 08:24:00,
2013-03-29 04:29:00,49.8,41.2,30.30,NNW,348,0.0,0.0,72,0.00,,---,0.00,VWS V14.01,2013-03-29 08:29:00,
2013-03-29 04:34:00,50.0,41.3,30.30,NNW,348,0.0,0.0,72,0.00,,---,0.00,VWS V14.01,2013-03-29 08:34:00,
2013-03-29 04:39:00,50.0,41.3,30.30,NNW,340,0.0,0.0,72,0.00,,---,0.00,VWS V14.01,2013-03-29 08:39:00,
2013-03-29 04:44:00,49.8,40.8,30.30,North,353,0.0,0.0,71,0.00,,---,0.00,VWS V14.01,2013-03-29 08:44:00,
2013-03-29 04:49:00,50.2,40.4,30.30,NNW,337,0.0,0.0,69,0.00,,---,0.00,VWS V14.01,2013-03-29 08:49:00,
2013-03-29 04:55:00,50.2,40.0,30.30,North,353,0.0,0.0,68,0.00,,---,0.00,VWS V14.01,2013-03-29 08:55:00,
2013-03-29 05:00:00,50.4,39.5,30.30,NNW,337,0.0,2.2,66,0.00,,---,0.00,VWS V14.01,2013-03-29 09:00:00,
2013-03-29 05:05:00,50.5,38.4,30.30,NNW,328,0.0,0.0,63,0.00,,---,0.00,VWS V14.01,2013-03-29 09:05:00,
2013-03-29 05:10:00,50.5,37.2,30.30,NW,312,2.7,2.7,60,0.00,,---,0.00,VWS V14.01,2013-03-29 09:10:00,
2013-03-29 05:15:00,50.7,36.1,30.30,North,353,0.0,0.0,57,0.00,,---,0.00,VWS V14.01,2013-03-29 09:15:00,
2013-03-29 05:20:00,50.5,35.4,30.30,NNW,346,0.0,0.0,56,0.00,,---,0.00,VWS V14.01,2013-03-29 09:20:00,
2013-03-29 05:25:00,50.4,34.8,30.30,NNW,338,0.0,0.0,55,0.00,,---,0.00,VWS V14.01,2013-03-29 09:25:00,
2013-03-29 05:30:00,50.4,34.4,30.30,North,353,0.0,2.7,54,0.00,,---,0.00,VWS V14.01,2013-03-29 09:30:00,
2013-03-29 05:36:00,50.4,34.4,30.30,NNW,341,3.6,3.6,54,0.00,,---,0.00,VWS V14.01,2013-03-29 09:36:00,
2013-03-29 05:41:00,50.2,34.2,30.30,NNW,337,3.1,3.1,54,0.00,,---,0.00,VWS V14.01,2013-03-29 09:41:00,
2013-03-29 05:46:00,50.2,34.7,30.30,North,349,2.7,2.7,55,0.00,,---,0.00,VWS V14.01,2013-03-29 09:46:00,
2013-03-29 05:51:00,50.2,34.2,30.30,NNW,342,2.2,2.2,54,0.00,,---,0.00,VWS V14.01,2013-03-29 09:51:00,
2013-03-29 05:56:00,50.2,34.7,30.30,NW,316,0.0,3.6,55,0.00,,---,0.00,VWS V14.01,2013-03-29 09:56:00,
2013-03-29 06:02:00,50.4,34.8,30.30,North,350,2.2,2.7,55,0.00,,---,0.00,VWS V14.01,2013-03-29 10:02:00,
2013-03-29 06:07:00,50.2,34.7,30.30,NNW,335,3.1,3.1,55,0.00,,---,0.00,VWS V14.01,2013-03-29 10:07:00,
2013-03-29 06:12:00,50.0,34.5,30.33,NNW,342,3.1,3.1,55,0.00,,---,0.00,VWS V14.01,2013-03-29 10:12:00,
2013-03-29 06:17:00,50.0,34.9,30.33,NNW,334,2.2,2.2,56,0.00,,---,0.00,VWS V14.01,2013-03-29 10:17:00,
2013-03-29 06:22:00,50.2,35.1,30.33,North,0,2.7,2.7,56,0.00,,---,0.00,VWS V14.01,2013-03-29 10:22:00,
2013-03-29 06:27:00,50.5,35.4,30.33,NNW,342,2.7,2.7,56,0.00,,---,0.00,VWS V14.01,2013-03-29 10:27:00,
2013-03-29 06:32:00,50.7,34.7,30.33,North,353,0.0,3.1,54,0.00,,---,0.00,VWS V14.01,2013-03-29 10:32:00,
2013-03-29 06:37:00,50.7,34.7,30.33,NNW,344,3.1,3.1,54,0.00,,---,0.00,VWS V14.01,2013-03-29 10:37:00,
2013-03-29 06:43:00,50.5,33.6,30.33,North,353,2.7,3.6,52,0.00,,---,0.00,VWS V14.01,2013-03-29 10:43:00,
2013-03-29 06:48:00,50.7,34.2,30.33,NNW,344,2.2,2.7,53,0.00,,---,0.00,VWS V14.01,2013-03-29 10:48:00,
2013-03-29 06:53:00,50.9,33.4,30.33,North,350,4.9,4.9,51,0.00,,---,0.00,VWS V14.01,2013-03-29 10:53:00,
2013-03-29 06:58:00,51.1,33.6,30.33,NNW,348,3.1,3.1,51,0.00,,---,0.00,VWS V14.01,2013-03-29 10:58:00,
2013-03-29 07:03:00,51.1,33.1,30.33,NNW,331,2.2,2.2,50,0.00,,---,0.00,VWS V14.01,2013-03-29 11:03:00,
2013-03-29 07:08:00,51.1,33.6,30.33,North,0,2.2,2.7,51,0.00,,---,0.00,VWS V14.01,2013-03-29 11:08:00,
2013-03-29 07:13:00,51.1,33.6,30.33,NNW,339,3.6,3.6,51,0.00,,---,0.00,VWS V14.01,2013-03-29 11:13:00,
2013-03-29 07:19:00,50.5,33.1,30.33,NNW,346,0.0,0.0,51,0.00,,---,0.00,VWS V14.01,2013-03-29 11:19:00,
2013-03-29 07:24:00,50.5,33.6,30.33,North,353,2.2,2.7,52,0.00,,---,0.00,VWS V14.01,2013-03-29 11:24:00,
2013-03-29 07:29:00,50.5,34.1,30.33,North,353,2.7,2.7,53,0.00,,---,0.00,VWS V14.01,2013-03-29 11:29:00,
2013-03-29 07:34:00,50.7,34.2,30.33,NW,323,3.1,3.1,53,0.00,,---,0.00,VWS V14.01,2013-03-29 11:34:00,
2013-03-29 07:39:00,51.3,34.2,30.33,North,353,0.0,0.0,52,0.00,,---,0.00,VWS V14.01,2013-03-29 11:39:00,
2013-03-29 07:45:00,51.6,33.6,30.33,North,353,4.0,4.0,50,0.00,,---,0.00,VWS V14.01,2013-03-29 11:45:00,
2013-03-29 07:50:00,52.2,33.6,30.33,NNW,346,2.7,4.0,49,0.00,,---,0.00,VWS V14.01,2013-03-29 11:50:00,
2013-03-29 07:55:00,53.1,33.4,30.36,NNW,346,2.7,2.7,47,0.00,,---,0.00,VWS V14.01,2013-03-29 11:55:00,
2013-03-29 08:00:00,54.0,32.0,30.36,NNW,341,3.1,3.1,43,0.00,,---,0.00,VWS V14.01,2013-03-29 12:00:00,
2013-03-29 08:05:00,55.4,30.9,30.36,North,3,3.1,3.6,39,0.00,,---,0.00,VWS V14.01,2013-03-29 12:05:00,
2013-03-29 08:10:00,58.1,30.6,30.36,North,350,3.1,4.9,35,0.00,,---,0.00,VWS V14.01,2013-03-29 12:10:00,
2013-03-29 08:15:00,59.7,29.1,30.36,NW,307,3.1,3.1,31,0.00,,---,0.00,VWS V14.01,2013-03-29 12:15:00,
2013-03-29 08:20:00,61.2,26.9,30.36,NW,314,2.7,3.1,27,0.00,,---,0.00,VWS V14.01,2013-03-29 12:20:00,
2013-03-29 08:25:00,61.7,27.4,30.36,North,353,4.5,4.5,27,0.00,,---,0.00,VWS V14.01,2013-03-29 12:25:00,
2013-03-29 08:30:00,61.2,28.7,30.36,North,357,5.8,5.8,29,0.00,,---,0.00,VWS V14.01,2013-03-29 12:30:00,
2013-03-29 08:35:00,61.2,28.7,30.36,North,3,5.4,5.4,29,0.00,,---,0.00,VWS V14.01,2013-03-29 12:35:00,
2013-03-29 08:41:00,61.9,29.3,30.36,West,280,4.0,5.4,29,0.00,,---,0.00,VWS V14.01,2013-03-29 12:41:00,
2013-03-29 08:46:00,63.1,28.6,30.36,North,0,4.0,4.0,27,0.00,,---,0.00,VWS V14.01,2013-03-29 12:46:00,
2013-03-29 08:51:00,63.7,28.2,30.36,North,0,5.4,5.4,26,0.00,,---,0.00,VWS V14.01,2013-03-29 12:51:00,
2013-03-29 08:56:00,65.8,28.1,30.36,NNW,343,4.0,4.0,24,0.00,,---,0.00,VWS V14.01,2013-03-29 12:56:00,
2013-03-29 09:02:00,66.9,29.0,30.36,West,267,5.4,5.4,24,0.00,,---,0.00,VWS V14.01,2013-03-29 13:02:00,
2013-03-29 09:07:00,68.5,29.3,30.36,North,357,6.7,6.7,23,0.00,,---,0.00,VWS V14.01,2013-03-29 13:07:00,
2013-03-29 09:12:00,69.6,29.1,30.36,WNW,302,2.7,5.4,22,0.00,,---,0.00,VWS V14.01,2013-03-29 13:12:00,
2013-03-29 09:18:00,68.9,29.6,30.36,NNE,17,4.0,4.0,23,0.00,,---,0.00,VWS V14.01,2013-03-29 13:18:00,
2013-03-29 09:23:00,68.5,29.3,30.36,North,353,3.6,3.6,23,0.00,,---,0.00,VWS V14.01,2013-03-29 13:23:00,
2013-03-29 09:28:00,68.4,29.1,30.36,North,353,5.4,5.4,23,0.00,,---,0.00,VWS V14.01,2013-03-29 13:28:00,
2013-03-29 09:33:00,69.1,29.8,30.36,NNW,334,5.4,5.4,23,0.00,,---,0.00,VWS V14.01,2013-03-29 13:33:00,
2013-03-29 09:38:00,71.2,30.5,30.36,North,350,2.7,5.8,22,0.00,,---,0.00,VWS V14.01,2013-03-29 13:38:00,
2013-03-29 09:43:00,72.9,30.7,30.36,North,353,4.0,4.0,21,0.00,,---,0.00,VWS V14.01,2013-03-29 13:43:00,
2013-03-29 09:48:00,73.4,31.1,30.36,North,0,6.3,8.1,21,0.00,,---,0.00,VWS V14.01,2013-03-29 13:48:00,
2013-03-29 09:53:00,74.1,31.7,30.36,NNE,13,10.1,10.1,21,0.00,,---,0.00,VWS V14.01,2013-03-29 13:53:00,
2013-03-29 09:58:00,73.0,30.8,30.39,North,3,2.7,4.0,21,0.00,,---,0.00,VWS V14.01,2013-03-29 13:58:00,
2013-03-29 10:03:00,74.8,32.3,30.39,WNW,282,6.3,6.3,21,0.00,,---,0.00,VWS V14.01,2013-03-29 14:03:00,
2013-03-29 10:08:00,76.1,29.6,30.39,North,357,4.0,4.0,18,0.00,,---,0.00,VWS V14.01,2013-03-29 14:08:00,
2013-03-29 10:14:00,77.0,30.3,30.39,NW,305,3.6,3.6,18,0.00,,---,0.00,VWS V14.01,2013-03-29 14:14:00,
2013-03-29 10:19:00,78.6,31.6,30.39,North,353,2.7,8.3,18,0.00,,---,0.00,VWS V14.01,2013-03-29 14:19:00,
2013-03-29 10:24:00,78.8,30.4,30.39,NW,322,4.0,4.0,17,0.00,,---,0.00,VWS V14.01,2013-03-29 14:24:00,
2013-03-29 10:29:00,78.6,31.6,30.39,NNE,17,5.4,5.4,18,0.00,,---,0.00,VWS V14.01,2013-03-29 14:29:00,
2013-03-29 10:34:00,80.1,31.4,30.39,North,2,4.0,5.8,17,0.00,,---,0.00,VWS V14.01,2013-03-29 14:34:00,
2013-03-29 10:40:00,79.7,31.1,30.39,ENE,64,5.4,5.4,17,0.00,,---,0.00,VWS V14.01,2013-03-29 14:40:00,
2013-03-29 10:45:00,79.2,30.6,30.39,North,357,4.9,4.9,17,0.00,,---,0.00,VWS V14.01,2013-03-29 14:45:00,
2013-03-29 10:50:00,80.2,31.5,30.39,NNW,341,4.0,4.0,17,0.00,,---,0.00,VWS V14.01,2013-03-29 14:50:00,
2013-03-29 10:55:00,82.4,31.8,30.39,North,349,6.3,6.3,16,0.00,,---,0.00,VWS V14.01,2013-03-29 14:55:00,
2013-03-29 11:01:00,81.5,32.5,30.39,ENE,70,6.3,6.3,17,0.00,,---,0.00,VWS V14.01,2013-03-29 15:01:00,
2013-03-29 11:06:00,81.0,32.1,30.39,North,353,3.6,7.2,17,0.00,,---,0.00,VWS V14.01,2013-03-29 15:06:00,
2013-03-29 11:11:00,79.7,31.1,30.39,East,87,3.6,7.6,17,0.00,,---,0.00,VWS V14.01,2013-03-29 15:11:00,
2013-03-29 11:16:00,81.0,32.1,30.39,ENE,62,3.6,4.0,17,0.00,,---,0.00,VWS V14.01,2013-03-29 15:16:00,
2013-03-29 11:21:00,77.4,30.6,30.39,North,0,5.4,5.4,18,0.00,,---,0.00,VWS V14.01,2013-03-29 15:21:00,
2013-03-29 11:27:00,78.8,30.4,30.39,NNE,14,3.1,3.1,17,0.00,,---,0.00,VWS V14.01,2013-03-29 15:27:00,
2013-03-29 11:32:00,81.0,32.1,30.39,NNW,339,5.4,5.4,17,0.00,,---,0.00,VWS V14.01,2013-03-29 15:32:00,
2013-03-29 11:37:00,81.0,32.1,30.39,NE,47,4.0,4.0,17,0.00,,---,0.00,VWS V14.01,2013-03-29 15:37:00,
2013-03-29 11:42:00,82.6,31.9,30.39,ENE,70,3.6,6.3,16,0.00,,---,0.00,VWS V14.01,2013-03-29 15:42:00,
2013-03-29 11:48:00,84.6,33.5,30.39,ENE,75,5.4,5.4,16,0.00,,---,0.00,VWS V14.01,2013-03-29 15:48:00,
2013-03-29 11:53:00,84.0,33.0,30.39,North,0,6.7,6.7,16,0.00,,---,0.00,VWS V14.01,2013-03-29 15:53:00,
2013-03-29 11:58:00,81.0,32.1,30.39,ENE,72,3.1,3.1,17,0.00,,---,0.00,VWS V14.01,2013-03-29 15:58:00,
2013-03-29 12:03:00,82.2,33.1,30.39,ENE,59,2.7,2.7,17,0.00,,---,0.00,VWS V14.01,2013-03-29 16:03:00,
2013-03-29 12:08:00,83.7,32.8,30.39,East,88,4.0,5.8,16,0.00,,---,0.00,VWS V14.01,2013-03-29 16:08:00,
2013-03-29 12:13:00,83.8,32.9,30.39,North,3,6.3,6.3,16,0.00,,---,0.00,VWS V14.01,2013-03-29 16:13:00,
2013-03-29 12:18:00,85.3,34.1,30.39,ENE,70,4.0,4.0,16,0.00,,---,0.00,VWS V14.01,2013-03-29 16:18:00,
2013-03-29 12:23:00,83.8,32.9,30.36,ESE,120,5.8,5.8,16,0.00,,---,0.00,VWS V14.01,2013-03-29 16:23:00,
2013-03-29 12:28:00,81.9,32.8,30.36,North,350,5.4,5.4,17,0.00,,---,0.00,VWS V14.01,2013-03-29 16:28:00,
2013-03-29 12:34:00,84.9,33.8,30.36,NNW,328,4.9,5.4,16,0.00,,---,0.00,VWS V14.01,2013-03-29 16:34:00,
2013-03-29 12:39:00,85.3,34.1,30.36,WNW,300,8.1,8.1,16,0.00,,---,0.00,VWS V14.01,2013-03-29 16:39:00,
2013-03-29 12:44:00,78.1,26.7,30.36,NNE,19,2.2,4.9,15,0.00,,---,0.00,VWS V14.01,2013-03-29 16:44:00,
2013-03-29 12:49:00,80.6,31.8,30.36,ENE,72,4.9,4.9,17,0.00,,---,0.00,VWS V14.01,2013-03-29 16:49:00,
2013-03-29 12:54:00,80.2,31.5,30.36,ESE,121,4.9,5.8,17,0.00,,---,0.00,VWS V14.01,2013-03-29 16:54:00,
2013-03-29 12:59:00,79.0,30.5,30.36,NNW,330,3.6,8.1,17,0.00,,---,0.00,VWS V14.01,2013-03-29 16:59:00,
2013-03-29 13:05:00,80.4,31.7,30.36,North,0,2.2,4.9,17,0.00,,---,0.00,VWS V14.01,2013-03-29 17:05:00,
2013-03-29 13:10:00,80.1,31.4,30.36,NE,43,8.3,8.3,17,0.00,,---,0.00,VWS V14.01,2013-03-29 17:10:00,
2013-03-29 13:15:00,81.0,32.1,30.36,North,349,6.3,6.3,17,0.00,,---,0.00,VWS V14.01,2013-03-29 17:15:00,
2013-03-29 13:20:00,79.3,30.8,30.36,ENE,69,6.3,6.3,17,0.00,,---,0.00,VWS V14.01,2013-03-29 17:20:00,
2013-03-29 13:25:00,81.5,32.5,30.36,NE,51,4.0,4.0,17,0.00,,---,0.00,VWS V14.01,2013-03-29 17:25:00,
2013-03-29 13:30:00,80.8,32.0,30.36,NE,38,4.0,4.0,17,0.00,,---,0.00,VWS V14.01,2013-03-29 17:30:00,
2013-03-29 13:36:00,85.8,34.5,30.36,WSW,251,5.4,5.4,16,0.00,,---,0.00,VWS V14.01,2013-03-29 17:36:00,
2013-03-29 13:41:00,82.4,31.8,30.36,East,100,4.0,4.0,16,0.00,,---,0.00,VWS V14.01,2013-03-29 17:41:00,
2013-03-29 13:47:00,83.1,32.3,30.36,NNW,328,6.3,6.3,16,0.00,,---,0.00,VWS V14.01,2013-03-29 17:47:00,
2013-03-29 13:52:00,83.5,32.6,30.33,ENE,57,5.4,5.4,16,0.00,,---,0.00,VWS V14.01,2013-03-29 17:52:00,
2013-03-29 13:57:00,87.1,35.5,30.33,East,101,4.5,5.8,16,0.00,,---,0.00,VWS V14.01,2013-03-29 17:57:00,
2013-03-29 14:02:00,85.6,34.3,30.33,ENE,74,3.6,3.6,16,0.00,,---,0.00,VWS V14.01,2013-03-29 18:02:00,
2013-03-29 14:07:00,82.2,33.1,30.33,North,6,3.1,4.9,17,0.00,,---,0.00,VWS V14.01,2013-03-29 18:07:00,
2013-03-29 14:12:00,77.0,30.3,30.33,North,353,4.9,4.9,18,0.00,,---,0.00,VWS V14.01,2013-03-29 18:12:00,
2013-03-29 14:18:00,76.1,29.6,30.33,East,79,4.9,4.9,18,0.00,,---,0.00,VWS V14.01,2013-03-29 18:18:00,
2013-03-29 14:23:00,81.5,32.5,30.33,NE,53,4.0,5.4,17,0.00,,---,0.00,VWS V14.01,2013-03-29 18:23:00,
2013-03-29 14:28:00,86.9,35.3,30.33,East,83,6.3,7.6,16,0.00,,---,0.00,VWS V14.01,2013-03-29 18:28:00,
2013-03-29 14:33:00,81.7,32.7,30.33,East,91,5.8,6.3,17,0.00,,---,0.00,VWS V14.01,2013-03-29 18:33:00,
2013-03-29 14:38:00,77.5,30.7,30.33,ENE,70,2.7,5.8,18,0.00,,---,0.00,VWS V14.01,2013-03-29 18:38:00,
2013-03-29 14:44:00,75.0,28.7,30.33,NE,48,5.8,8.1,18,0.00,,---,0.00,VWS V14.01,2013-03-29 18:44:00,
2013-03-29 14:49:00,79.9,31.2,30.33,ENE,68,3.6,3.6,17,0.00,,---,0.00,VWS V14.01,2013-03-29 18:49:00,
2013-03-29 14:54:00,82.2,33.1,30.33,NNE,17,3.6,8.1,17,0.00,,---,0.00,VWS V14.01,2013-03-29 18:54:00,
2013-03-29 14:59:00,84.6,33.5,30.33,NE,54,4.9,4.9,16,0.00,,---,0.00,VWS V14.01,2013-03-29 18:59:00,
2013-03-29 15:04:00,83.8,32.9,30.33,East,79,3.1,3.1,16,0.00,,---,0.00,VWS V14.01,2013-03-29 19:04:00,
2013-03-29 15:09:00,76.8,30.1,30.33,NE,41,5.8,5.8,18,0.00,,---,0.00,VWS V14.01,2013-03-29 19:09:00,
2013-03-29 15:14:00,81.1,32.2,30.33,NE,45,3.1,3.1,17,0.00,,---,0.00,VWS V14.01,2013-03-29 19:14:00,
2013-03-29 15:20:00,86.0,34.6,30.33,ESE,122,5.8,5.8,16,0.00,,---,0.00,VWS V14.01,2013-03-29 19:20:00,
2013-03-29 15:25:00,87.6,35.9,30.30,East,100,6.7,6.7,16,0.00,,---,0.00,VWS V14.01,2013-03-29 19:25:00,
2013-03-29 15:30:00,84.4,33.3,30.30,ESE,120,6.3,8.7,16,0.00,,---,0.00,VWS V14.01,2013-03-29 19:30:00,
2013-03-29 15:35:00,79.3,30.8,30.30,ENE,64,3.1,3.1,17,0.00,,---,0.00,VWS V14.01,2013-03-29 19:35:00,
2013-03-29 15:40:00,81.1,32.2,30.30,North,5,2.7,2.7,17,0.00,,---,0.00,VWS V14.01,2013-03-29 19:40:00,
2013-03-29 15:45:00,86.5,35.1,30.30,ENE,63,3.6,5.4,16,0.00,,---,0.00,VWS V14.01,2013-03-29 19:45:00,
2013-03-29 15:51:00,85.5,34.2,30.30,ENE,62,8.1,8.1,16,0.00,,---,0.00,VWS V14.01,2013-03-29 19:51:00,
2013-03-29 15:56:00,76.8,30.1,30.30,ENE,71,5.8,5.8,18,0.00,,---,0.00,VWS V14.01,2013-03-29 19:56:00,
2013-03-29 16:01:00,77.9,31.0,30.30,NE,38,4.0,4.0,18,0.00,,---,0.00,VWS V14.01,2013-03-29 20:01:00,
2013-03-29 16:06:00,79.3,30.8,30.30,NE,56,5.8,5.8,17,0.00,,---,0.00,VWS V14.01,2013-03-29 20:06:00,
2013-03-29 16:11:00,83.3,32.5,30.30,East,81,5.8,5.8,16,0.00,,---,0.00,VWS V14.01,2013-03-29 20:11:00,
2013-03-29 16:16:00,83.3,32.5,30.30,East,85,4.0,4.0,16,0.00,,---,0.00,VWS V14.01,2013-03-29 20:16:00,
2013-03-29 16:21:00,78.8,30.4,30.30,East,87,3.6,3.6,17,0.00,,---,0.00,VWS V14.01,2013-03-29 20:21:00,
2013-03-29 16:27:00,78.3,31.3,30.30,ENE,73,5.8,5.8,18,0.00,,---,0.00,VWS V14.01,2013-03-29 20:27:00,
2013-03-29 16:32:00,82.0,33.0,30.30,ESE,121,3.6,8.7,17,0.00,,---,0.00,VWS V14.01,2013-03-29 20:32:00,
2013-03-29 16:38:00,84.4,33.3,30.30,ENE,59,8.1,8.1,16,0.00,,---,0.00,VWS V14.01,2013-03-29 20:38:00,
2013-03-29 16:43:00,77.7,30.9,30.30,NE,56,4.0,4.9,18,0.00,,---,0.00,VWS V14.01,2013-03-29 20:43:00,
2013-03-29 16:48:00,82.2,33.1,30.30,ENE,67,6.7,6.7,17,0.00,,---,0.00,VWS V14.01,2013-03-29 20:48:00,
2013-03-29 16:53:00,78.6,31.6,30.30,NE,52,3.6,3.6,18,0.00,,---,0.00,VWS V14.01,2013-03-29 20:53:00,
2013-03-29 16:58:00,76.3,29.7,30.30,North,8,6.3,6.3,18,0.00,,---,0.00,VWS V14.01,2013-03-29 20:58:00,
2013-03-29 17:03:00,75.4,29.0,30.30,ENE,71,7.6,8.3,18,0.00,,---,0.00,VWS V14.01,2013-03-29 21:03:00,
2013-03-29 17:09:00,74.7,28.4,30.30,ESE,109,3.1,4.0,18,0.00,,---,0.00,VWS V14.01,2013-03-29 21:09:00,
2013-03-29 17:14:00,73.4,27.4,30.30,ENE,74,4.0,5.8,18,0.00,,---,0.00,VWS V14.01,2013-03-29 21:14:00,
2013-03-29 17:19:00,73.6,27.5,30.30,ENE,69,5.4,8.3,18,0.00,,---,0.00,VWS V14.01,2013-03-29 21:19:00,
2013-03-29 17:24:00,73.2,28.5,30.30,ESE,111,6.3,6.3,19,0.00,,---,0.00,VWS V14.01,2013-03-29 21:24:00,
2013-03-29 17:29:00,77.7,30.9,30.30,East,81,4.9,6.7,18,0.00,,---,0.00,VWS V14.01,2013-03-29 21:29:00,
2013-03-29 17:35:00,81.1,32.2,30.30,East,85,5.4,5.8,17,0.00,,---,0.00,VWS V14.01,2013-03-29 21:35:00,
2013-03-29 17:40:00,80.4,31.7,30.30,ESE,117,6.3,6.3,17,0.00,,---,0.00,VWS V14.01,2013-03-29 21:40:00,
2013-03-29 17:45:00,80.2,31.5,30.30,East,93,5.8,6.3,17,0.00,,---,0.00,VWS V14.01,2013-03-29 21:45:00,
2013-03-29 17:50:00,79.7,31.1,30.30,NE,55,6.3,6.3,17,0.00,,---,0.00,VWS V14.01,2013-03-29 21:50:00,
2013-03-29 17:56:00,79.9,31.2,30.30,East,88,3.6,5.8,17,0.00,,---,0.00,VWS V14.01,2013-03-29 21:56:00,
2013-03-29 18:01:00,75.9,29.4,30.30,ENE,62,3.6,5.4,18,0.00,,---,0.00,VWS V14.01,2013-03-29 22:01:00,
2013-03-29 18:06:00,72.0,29.9,30.30,East,85,5.4,5.4,21,0.00,,---,0.00,VWS V14.01,2013-03-29 22:06:00,
2013-03-29 18:11:00,70.9,30.2,30.30,East,79,4.5,6.3,22,0.00,,---,0.00,VWS V14.01,2013-03-29 22:11:00,
2013-03-29 18:16:00,70.3,29.7,30.30,SE,124,2.7,3.6,22,0.00,,---,0.00,VWS V14.01,2013-03-29 22:16:00,
2013-03-29 18:21:00,72.3,31.4,30.30,ENE,72,5.8,5.8,22,0.00,,---,0.00,VWS V14.01,2013-03-29 22:21:00,
2013-03-29 18:26:00,74.5,32.0,30.30,SE,127,5.8,5.8,21,0.00,,---,0.00,VWS V14.01,2013-03-29 22:26:00,
2013-03-29 18:31:00,73.8,31.4,30.30,ENE,78,5.4,5.4,21,0.00,,---,0.00,VWS V14.01,2013-03-29 22:31:00,
2013-03-29 18:36:00,72.7,31.7,30.30,East,89,5.8,5.8,22,0.00,,---,0.00,VWS V14.01,2013-03-29 22:36:00,
2013-03-29 18:42:00,72.5,31.5,30.30,ESE,113,4.0,5.4,22,0.00,,---,0.00,VWS V14.01,2013-03-29 22:42:00,
2013-03-29 18:47:00,71.2,30.5,30.30,East,86,6.3,6.3,22,0.00,,---,0.00,VWS V14.01,2013-03-29 22:47:00,
2013-03-29 18:52:00,70.0,29.4,30.30,ENE,77,5.8,5.8,22,0.00,,---,0.00,VWS V14.01,2013-03-29 22:52:00,
2013-03-29 18:57:00,69.4,30.1,30.30,East,91,2.2,3.6,23,0.00,,---,0.00,VWS V14.01,2013-03-29 22:57:00,
2013-03-29 19:02:00,68.7,29.5,30.30,NE,47,6.3,6.3,23,0.00,,---,0.00,VWS V14.01,2013-03-29 23:02:00,
2013-03-29 19:07:00,67.8,29.7,30.30,NE,51,3.1,3.1,24,0.00,,---,0.00,VWS V14.01,2013-03-29 23:07:00,
2013-03-29 19:12:00,67.1,29.1,30.30,East,97,2.7,4.0,24,0.00,,---,0.00,VWS V14.01,2013-03-29 23:12:00,
2013-03-29 19:17:00,66.2,30.3,30.30,ENE,60,5.4,5.8,26,0.00,,---,0.00,VWS V14.01,2013-03-29 23:17:00,
2013-03-29 19:22:00,65.7,29.9,30.30,ENE,69,5.8,5.8,26,0.00,,---,0.00,VWS V14.01,2013-03-29 23:22:00,
2013-03-29 19:27:00,65.5,31.5,30.30,ENE,61,3.1,3.1,28,0.00,,---,0.00,VWS V14.01,2013-03-29 23:27:00,
2013-03-29 19:32:00,64.8,30.9,30.30,ENE,76,5.4,7.2,28,0.00,,---,0.00,VWS V14.01,2013-03-29 23:32:00,
2013-03-29 19:37:00,64.8,31.8,30.30,East,91,4.9,5.4,29,0.00,,---,0.00,VWS V14.01,2013-03-29 23:37:00,
2013-03-29 19:43:00,64.4,32.3,30.30,ENE,65,4.9,6.3,30,0.00,,---,0.00,VWS V14.01,2013-03-29 23:43:00,
2013-03-29 19:48:00,64.2,33.8,30.30,East,101,3.6,3.6,32,0.00,,---,0.00,VWS V14.01,2013-03-29 23:48:00,
2013-03-29 19:53:00,63.5,33.9,30.30,NE,36,3.6,3.6,33,0.00,,---,0.00,VWS V14.01,2013-03-29 23:53:00,
2013-03-29 19:58:00,63.5,33.9,30.30,NE,56,3.6,4.0,33,0.00,,---,0.00,VWS V14.01,2013-03-29 23:58:00,
2013-03-29 20:03:00,63.5,34.7,30.30,ENE,71,3.6,5.8,34,0.00,,---,0.00,VWS V14.01,2013-03-30 00:03:00,
2013-03-29 20:08:00,63.5,33.9,30.30,ENE,71,4.9,4.9,33,0.00,,---,0.00,VWS V14.01,2013-03-30 00:08:00,
2013-03-29 20:13:00,63.0,34.2,30.33,ENE,68,3.1,3.1,34,0.00,,---,0.00,VWS V14.01,2013-03-30 00:13:00,
2013-03-29 20:18:00,62.6,33.9,30.33,East,80,2.7,3.6,34,0.00,,---,0.00,VWS V14.01,2013-03-30 00:18:00,
2013-03-29 20:24:00,62.2,33.5,30.33,East,101,2.7,3.1,34,0.00,,---,0.00,VWS V14.01,2013-03-30 00:24:00,
2013-03-29 20:29:00,62.1,34.1,30.33,ENE,63,0.0,0.0,35,0.00,,---,0.00,VWS V14.01,2013-03-30 00:29:00,
2013-03-29 20:34:00,62.1,34.1,30.33,ESE,103,2.7,3.1,35,0.00,,---,0.00,VWS V14.01,2013-03-30 00:34:00,
2013-03-29 20:39:00,61.9,34.0,30.33,East,87,2.2,2.2,35,0.00,,---,0.00,VWS V14.01,2013-03-30 00:39:00,
2013-03-29 20:44:00,61.7,33.8,30.33,ENE,69,3.1,3.6,35,0.00,,---,0.00,VWS V14.01,2013-03-30 00:44:00,
2013-03-29 20:49:00,61.2,34.0,30.33,NE,52,3.6,3.6,36,0.00,,---,0.00,VWS V14.01,2013-03-30 00:49:00,
2013-03-29 20:54:00,61.0,33.9,30.33,ENE,78,3.1,3.1,36,0.00,,---,0.00,VWS V14.01,2013-03-30 00:54:00,
2013-03-29 20:59:00,60.4,33.4,30.33,East,89,0.0,0.0,36,0.00,,---,0.00,VWS V14.01,2013-03-30 00:59:00,
2013-03-29 21:04:00,60.4,33.4,30.33,ENE,78,0.0,0.0,36,0.00,,---,0.00,VWS V14.01,2013-03-30 01:04:00,
2013-03-29 21:10:00,59.9,33.6,30.33,ENE,65,0.0,0.0,37,0.00,,---,0.00,VWS V14.01,2013-03-30 01:10:00,
2013-03-29 21:15:00,59.4,33.1,30.33,ENE,65,0.0,0.0,37,0.00,,---,0.00,VWS V14.01,2013-03-30 01:15:00,
2013-03-29 21:20:00,58.8,33.3,30.33,ENE,65,0.0,0.0,38,0.00,,---,0.00,VWS V14.01,2013-03-30 01:20:00,
2013-03-29 21:25:00,58.5,33.6,30.33,ENE,65,0.0,0.0,39,0.00,,---,0.00,VWS V14.01,2013-03-30 01:25:00,
2013-03-29 21:30:00,58.1,34.5,30.33,ENE,65,0.0,0.0,41,0.00,,---,0.00,VWS V14.01,2013-03-30 01:30:00,
2013-03-29 21:36:00,57.7,35.4,30.33,ENE,65,0.0,0.0,43,0.00,,---,0.00,VWS V14.01,2013-03-30 01:36:00,
2013-03-29 21:41:00,57.9,36.2,30.33,ENE,65,0.0,0.0,44,0.00,,---,0.00,VWS V14.01,2013-03-30 01:41:00,
2013-03-29 21:46:00,57.9,35.6,30.33,ENE,65,0.0,0.0,43,0.00,,---,0.00,VWS V14.01,2013-03-30 01:46:00,
2013-03-29 21:51:00,57.7,36.6,30.33,ENE,66,0.0,0.0,45,0.00,,---,0.00,VWS V14.01,2013-03-30 01:51:00,
2013-03-29 21:56:00,57.4,36.2,30.33,ENE,65,0.0,0.0,45,0.00,,---,0.00,VWS V14.01,2013-03-30 01:56:00,
2013-03-29 22:02:00,57.0,35.9,30.33,ENE,65,0.0,0.0,45,0.00,,---,0.00,VWS V14.01,2013-03-30 02:02:00,
2013-03-29 22:07:00,56.7,36.1,30.33,ENE,65,0.0,0.0,46,0.00,,---,0.00,VWS V14.01,2013-03-30 02:07:00,
2013-03-29 22:12:00,56.5,37.0,30.33,ENE,65,0.0,0.0,48,0.00,,---,0.00,VWS V14.01,2013-03-30 02:12:00,
2013-03-29 22:17:00,56.3,37.9,30.33,ENE,65,0.0,0.0,50,0.00,,---,0.00,VWS V14.01,2013-03-30 02:17:00,
2013-03-29 22:22:00,56.1,38.8,30.36,ENE,65,0.0,0.0,52,0.00,,---,0.00,VWS V14.01,2013-03-30 02:22:00,
2013-03-29 22:27:00,55.9,40.5,30.36,ENE,65,0.0,0.0,56,0.00,,---,0.00,VWS V14.01,2013-03-30 02:27:00,
2013-03-29 22:32:00,55.6,41.0,30.36,ENE,65,0.0,0.0,58,0.00,,---,0.00,VWS V14.01,2013-03-30 02:32:00,
2013-03-29 22:37:00,55.4,41.8,30.36,ENE,65,0.0,0.0,60,0.00,,---,0.00,VWS V14.01,2013-03-30 02:37:00,
2013-03-29 22:42:00,55.6,41.9,30.36,ENE,65,0.0,0.0,60,0.00,,---,0.00,VWS V14.01,2013-03-30 02:42:00,
2013-03-29 22:48:00,55.2,42.4,30.36,ENE,66,0.0,0.0,62,0.00,,---,0.00,VWS V14.01,2013-03-30 02:48:00,
2013-03-29 22:53:00,54.9,42.9,30.36,ENE,65,0.0,0.0,64,0.00,,---,0.00,VWS V14.01,2013-03-30 02:53:00,
2013-03-29 22:58:00,54.9,44.1,30.36,ENE,65,0.0,0.0,67,0.00,,---,0.00,VWS V14.01,2013-03-30 02:58:00,
2013-03-29 23:03:00,54.5,44.2,30.36,ENE,65,0.0,0.0,68,0.00,,---,0.00,VWS V14.01,2013-03-30 03:03:00,
2013-03-29 23:08:00,54.5,44.9,30.36,ENE,65,0.0,0.0,70,0.00,,---,0.00,VWS V14.01,2013-03-30 03:08:00,
2013-03-29 23:13:00,54.3,45.1,30.36,ENE,65,0.0,0.0,71,0.00,,---,0.00,VWS V14.01,2013-03-30 03:13:00,
2013-03-29 23:18:00,54.3,45.5,30.36,ENE,65,0.0,0.0,72,0.00,,---,0.00,VWS V14.01,2013-03-30 03:18:00,
2013-03-29 23:23:00,54.3,45.5,30.36,ENE,65,0.0,0.0,72,0.00,,---,0.00,VWS V14.01,2013-03-30 03:23:00,
2013-03-29 23:28:00,54.1,46.0,30.36,ENE,65,0.0,0.0,74,0.00,,---,0.00,VWS V14.01,2013-03-30 03:28:00,
2013-03-29 23:34:00,54.0,45.9,30.36,ENE,65,0.0,0.0,74,0.00,,---,0.00,VWS V14.01,2013-03-30 03:34:00,
2013-03-29 23:39:00,54.0,45.9,30.36,ENE,65,0.0,0.0,74,0.00,,---,0.00,VWS V14.01,2013-03-30 03:39:00,
2013-03-29 23:44:00,54.0,45.9,30.36,ENE,65,0.0,0.0,74,0.00,,---,0.00,VWS V14.01,2013-03-30 03:44:00,
2013-03-29 23:49:00,54.0,45.9,30.36,ENE,65,0.0,0.0,74,0.00,,---,0.00,VWS V14.01,2013-03-30 03:49:00,
2013-03-29 23:54:00,54.0,45.9,30.36,ENE,66,0.0,0.0,74,0.00,,---,0.00,VWS V14.01,2013-03-30 03:54:00,
2013-03-29 23:59:00,53.6,45.9,30.36,ENE,65,0.0,0.0,75,0.00,,---,0.00,VWS V14.01,2013-03-30 03:59:00,